1487530800.13,468,13.56,73200.5,-10.67,-41.11,-41.17,0,*6C
1487530801.36,469,13.56,73204.5,-10.67,-41.11,-41.17,0,*6D
1487530802.61,470,13.56,73202.8,-10.67,-40.97,-41.17,0,*6A
1487530803.84,471,13.56,73202.0,-10.65,-41.11,-41.23,0,*61
1487530805.07,472,13.56,73202.0,-10.65,-40.97,-41.17,0,*6A
1487530806.28,473,13.63,73204.3,-10.65,-40.91,-41.17,0,*6D
1487530807.51,474,13.56,73200.0,-10.65,-40.97,-41.17,0,*6C
1487530808.74,475,13.56,73202.0,-10.63,-40.91,-41.11,0,*6B
1487530810.0,476,13.56,73204.5,-10.63,-40.97,-41.17,0,*68
1487530811.25,477,13.56,73204.3,-10.63,-41.11,-41.23,0,*61
1487530812.48,478,13.56,73204.5,-10.65,-41.17,-41.35,0,*69
1487530813.71,479,13.56,73204.3,-10.65,-40.97,-41.17,0,*61
1487530814.93,480,13.56,73204.8,-10.63,-41.17,-41.41,0,*6B
1487530816.19,481,13.56,73204.3,-10.65,-41.23,-41.35,0,*68
1487530817.42,482,13.56,73202.3,-10.59,-41.17,-41.29,0,*6E
1487530818.68,483,13.56,73206.0,-10.59,-41.29,-41.35,0,*6F
1487530819.91,484,13.63,73204.3,-10.59,-41.03,-41.11,0,*66
1487530821.17,485,13.56,73202.3,-10.63,-41.17,-41.35,0,*6D
1487530822.4,486,13.56,73202.3,-10.63,-40.91,-41.11,0,*67
1487530823.64,487,13.56,73200.3,-10.59,-40.91,-41.11,0,*6F
1487530824.89,488,13.56,73204.0,-10.59,-41.17,-41.35,0,*69
1487530826.1,489,13.56,73200.0,-10.57,-41.11,-41.29,0,*6D
1487530827.32,490,13.56,73204.5,-10.59,-41.29,-41.49,0,*66
1487530828.55,491,13.56,73204.3,-10.59,-41.17,-41.29,0,*6C
1487530829.78,492,13.56,73204.0,-10.57,-41.17,-41.35,0,*6C
1487530831.02,493,13.56,73200.8,-10.57,-41.23,-41.49,0,*61
1487530832.25,494,13.56,73206.5,-10.57,-41.23,-41.41,0,*6E
1487530833.46,495,13.56,73200.8,-10.57,-41.11,-41.29,0,*60
1487530834.68,496,13.56,73204.0,-10.59,-41.29,-41.49,0,*60
1487530835.92,497,13.56,73202.5,-10.57,-41.23,-41.41,0,*6D
1487530837.15,498,13.56,73202.0,-10.57,-41.23,-41.49,0,*6A
1487530838.35,499,13.56,73202.5,-10.57,-41.29,-41.49,0,*61
1487530839.6,500,13.56,73202.5,-10.59,-41.29,-41.55,0,*63
1487530840.84,501,13.56,73204.8,-10.57,-41.23,-41.61,0,*61
1487530842.04,502,13.56,73206.0,-10.57,-41.29,-41.49,0,*62
1487530843.23,503,13.56,73202.5,-10.57,-41.29,-41.61,0,*69
1487530844.44,504,13.56,73198.0,-10.57,-41.11,-41.29,0,*69
1487530845.64,505,13.56,73200.8,-10.57,-41.29,-41.61,0,*6F
1487530846.9,506,13.56,73204.0,-10.57,-40.85,-40.97,0,*63
1487530848.14,507,13.56,73202.5,-10.57,-40.97,-41.03,0,*6D
1487530849.37,508,13.56,73204.8,-10.57,-40.97,-41.11,0,*61
1487530850.61,509,13.56,73206.8,-10.57,-41.23,-41.61,0,*69
1487530851.87,510,13.56,73206.3,-10.55,-41.23,-41.41,0,*61
1487530853.09,511,13.56,73204.0,-10.55,-41.11,-41.49,0,*69
1487530854.35,512,13.56,73200.3,-10.55,-41.23,-41.49,0,*6B
1487530855.61,513,13.56,73202.5,-10.53,-41.35,-41.55,0,*66
1487530856.87,514,13.56,73204.3,-10.55,-41.41,-41.67,0,*65
1487530858.07,515,13.56,73204.8,-10.53,-41.41,-41.61,0,*64
1487530859.33,516,13.56,73206.5,-10.55,-41.49,-41.67,0,*6F
1487530860.59,517,13.56,73206.0,-10.55,-41.23,-41.41,0,*66
1487530861.83,518,13.56,73202.0,-10.55,-41.03,-41.29,0,*65
1487530863.03,519,13.56,73206.8,-10.53,-41.17,-41.41,0,*69
1487530864.26,520,13.56,73204.3,-10.55,-41.41,-41.61,0,*64
1487530865.47,521,13.56,73204.3,-10.53,-41.17,-41.41,0,*62
1487530866.67,522,13.56,73206.3,-10.57,-41.29,-41.61,0,*6A
1487530867.9,523,13.56,73202.3,-10.53,-41.17,-41.35,0,*63
1487530869.11,524,13.56,73202.8,-10.53,-41.03,-41.17,0,*61
1487530870.37,525,13.56,73202.3,-10.55,-41.23,-41.49,0,*6F
1487530871.63,526,13.56,73202.0,-10.53,-41.23,-41.55,0,*67
1487530872.85,527,13.56,73204.0,-10.55,-41.29,-41.49,0,*67
1487530874.08,528,13.56,73200.3,-10.53,-40.97,-41.17,0,*61
1487530875.34,529,13.56,73202.3,-10.51,-40.97,-41.03,0,*67
1487530876.62,530,13.56,73206.0,-10.51,-40.97,-41.23,0,*6D
1487530877.85,531,13.56,73204.5,-10.51,-41.17,-41.17,0,*62
1487530879.09,532,13.56,73206.5,-10.51,-40.91,-41.03,0,*6B
1487530880.33,533,13.56,73200.3,-10.49,-40.91,-40.97,0,*6F
1487530881.59,534,13.56,73204.3,-10.51,-41.03,-41.23,0,*65
1487530882.8,535,13.56,73202.0,-10.49,-40.91,-41.11,0,*66
1487530884.01,536,13.56,73202.3,-10.49,-41.11,-41.29,0,*67
1487530885.29,537,13.56,73206.3,-10.51,-41.35,-41.35,0,*64
1487530886.52,538,13.56,73204.0,-10.49,-40.97,-41.11,0,*6D
1487530887.75,539,13.56,73204.0,-10.49,-40.97,-41.29,0,*67
1487530889.01,540,13.56,73200.3,-10.49,-40.97,-41.35,0,*64
1487530890.2,541,13.56,73204.8,-10.49,-41.29,-41.49,0,*6A
1487530891.49,542,13.56,73206.3,-10.51,-41.23,-41.55,0,*67
1487530892.72,543,13.56,73206.3,-10.49,-40.97,-41.17,0,*67
1487530893.95,544,13.56,73206.5,-10.49,-40.97,-41.11,0,*66
1487530895.18,545,13.56,73200.0,-10.49,-40.85,-40.91,0,*6D
1487530896.41,546,13.56,73204.5,-10.49,-40.85,-41.11,0,*67
1487530897.64,547,13.56,73206.5,-10.47,-40.91,-41.11,0,*6D
1487530898.85,548,13.56,73200.5,-10.45,-40.91,-41.11,0,*60
1487530900.07,549,13.56,73200.5,-10.47,-41.11,-41.17,0,*6C
1487530901.29,550,13.56,73202.0,-10.45,-40.91,-41.03,0,*6A
1487530902.51,551,13.56,73202.3,-10.47,-41.17,-41.29,0,*6E
1487530903.76,552,13.56,73202.0,-10.47,-40.97,-41.29,0,*64
1487530904.96,553,13.56,73200.0,-10.45,-41.11,-41.17,0,*65
1487530906.17,554,13.56,73204.0,-10.45,-40.91,-41.03,0,*6E
1487530907.38,555,13.56,73206.0,-10.45,-40.91,-40.91,0,*65
1487530908.62,556,13.56,73204.8,-10.43,-40.85,-41.03,0,*6F
1487530909.89,557,13.56,73204.0,-10.41,-41.03,-41.23,0,*61
1487530911.15,558,13.56,73202.5,-10.43,-40.85,-40.85,0,*6E
1487530912.41,559,13.56,73204.0,-10.43,-40.85,-40.85,0,*6F
1487530913.65,560,13.56,73206.0,-10.43,-40.85,-41.03,0,*6A
1487530914.89,561,13.56,73200.5,-10.43,-41.03,-41.23,0,*66
1487530916.12,562,13.56,73204.5,-10.43,-41.11,-41.23,0,*66
1487530917.34,563,13.56,73204.0,-10.43,-41.03,-41.29,0,*6E
1487530918.6,564,13.56,73204.3,-10.41,-41.03,-41.23,0,*61
1487530919.87,565,13.56,73200.5,-10.41,-41.23,-41.41,0,*66
1487530921.13,566,13.56,73206.0,-10.41,-41.03,-41.23,0,*63
1487530922.38,567,13.56,73204.3,-10.41,-40.91,-41.03,0,*6A
1487530923.62,568,13.56,73204.0,-10.37,-41.03,-41.03,0,*6E
1487530924.91,569,13.56,73202.8,-10.37,-41.23,-41.35,0,*68
1487530926.17,570,13.56,73200.0,-10.37,-41.03,-41.35,0,*62
1487530927.43,571,13.56,73200.5,-10.37,-41.17,-41.23,0,*61
1487530928.69,572,13.56,73202.8,-10.37,-41.35,-41.41,0,*66
1487530929.92,573,13.56,73202.8,-10.35,-40.79,-40.91,0,*60
1487530931.17,574,13.56,73204.0,-10.41,-40.91,-41.03,0,*68
1487530932.43,575,13.56,73202.5,-10.41,-41.11,-41.23,0,*62
1487530933.71,576,13.56,73200.0,-10.37,-40.97,-41.35,0,*68
1487530935.0,577,13.56,73204.3,-10.37,-41.23,-41.35,0,*67
1487530936.26,578,13.56,73204.3,-10.37,-41.17,-41.23,0,*68
1487530937.52,579,13.56,73202.0,-10.37,-40.85,-41.03,0,*61
1487530938.8,580,13.56,73204.3,-10.37,-40.97,-41.23,0,*66
1487530940.01,581,13.56,73200.5,-10.35,-40.91,-41.17,0,*64
1487530941.24,582,13.56,73202.0,-10.35,-41.17,-41.35,0,*68
1487530942.51,583,13.56,73200.5,-10.37,-41.03,-41.23,0,*69
1487530943.71,584,13.56,73202.5,-10.35,-41.11,-41.29,0,*65
1487530944.91,585,13.56,73200.0,-10.35,-41.11,-41.17,0,*69
1487530946.14,586,13.56,73202.5,-10.35,-41.11,-41.35,0,*6A
1487530947.4,587,13.56,73200.8,-10.37,-41.23,-41.41,0,*6B
1487530948.63,588,13.56,73204.8,-10.35,-41.17,-41.35,0,*62
1487530949.86,589,13.56,73200.8,-10.35,-41.29,-41.35,0,*6E
1487530951.09,590,13.56,73204.0,-10.35,-40.97,-41.11,0,*64
1487530952.35,591,13.56,73206.0,-10.37,-41.17,-41.23,0,*6F
1487530953.55,592,13.56,73200.0,-10.35,-41.11,-41.17,0,*6F
1487530954.79,593,13.56,73206.0,-10.35,-40.97,-41.11,0,*67
1487530956.01,594,13.56,73200.5,-10.35,-40.97,-41.29,0,*6B
1487530957.27,595,13.56,73204.3,-10.33,-41.11,-41.35,0,*6E
1487530958.5,596,13.56,73200.8,-10.33,-41.17,-41.29,0,*66
1487530959.75,597,13.56,73200.5,-10.33,-41.29,-41.35,0,*67
1487530960.95,598,13.56,73204.5,-10.31,-41.11,-41.41,0,*62
1487530962.17,599,13.56,73202.8,-10.33,-41.17,-41.49,0,*6F
1487530963.4,600,13.56,73200.5,-10.31,-41.23,-41.41,0,*61
1487530964.66,601,13.56,73200.8,-10.33,-41.17,-41.35,0,*66
1487530965.89,602,13.56,73200.5,-10.33,-41.11,-41.29,0,*6E
1487530967.11,603,13.56,73202.5,-10.33,-41.17,-41.29,0,*69
1487530968.31,604,13.56,73204.0,-10.31,-41.17,-41.29,0,*6C
1487530969.54,605,13.56,73204.3,-10.31,-41.29,-41.55,0,*6B
1487530970.77,606,13.56,73202.8,-10.33,-41.17,-41.29,0,*6C
1487530972.02,607,13.56,73202.3,-10.33,-40.97,-41.29,0,*64
1487530973.23,608,13.56,73202.8,-10.31,-41.03,-41.29,0,*65
1487530974.43,609,13.56,73204.3,-10.31,-40.91,-41.11,0,*65
1487530975.63,610,13.56,73202.0,-10.31,-41.11,-41.29,0,*6F
1487530976.87,611,13.56,73204.3,-10.31,-40.91,-41.23,0,*6D
1487530978.1,612,13.56,73200.3,-10.31,-41.03,-41.23,0,*64
1487530979.3,613,13.56,73202.8,-10.31,-40.73,-40.91,0,*6B
1487530980.56,614,13.56,73204.3,-10.29,-41.23,-41.29,0,*63
1487530981.79,615,13.56,73202.8,-10.31,-41.11,-41.23,0,*60
1487530983.03,616,13.56,73202.8,-10.29,-40.91,-41.11,0,*62
1487530984.29,617,13.56,73202.3,-10.29,-41.23,-41.41,0,*6E
1487530985.55,618,13.56,73204.8,-10.27,-41.35,-41.55,0,*6D
1487530986.78,619,13.56,73204.0,-10.29,-41.03,-41.29,0,*6C
1487530988.02,620,13.56,73202.8,-10.29,-40.91,-41.03,0,*64
1487530989.26,621,13.56,73206.0,-10.27,-40.91,-41.23,0,*69
1487530990.52,622,13.56,73202.8,-10.29,-41.23,-41.41,0,*68
1487530991.75,623,13.56,73204.5,-10.29,-41.11,-41.41,0,*68
1487530992.98,624,13.56,73202.3,-10.29,-41.03,-41.29,0,*62
1487530994.24,625,13.56,73200.3,-10.29,-41.11,-41.23,0,*6A
1487530995.5,626,13.56,73202.5,-10.29,-41.11,-41.23,0,*69
1487530996.73,627,13.56,73200.5,-10.27,-41.03,-41.23,0,*65
1487530997.96,628,13.56,73200.5,-10.27,-41.17,-41.23,0,*6F
1487530999.18,629,13.56,73206.3,-10.27,-40.97,-41.17,0,*60
1487531000.44,630,13.56,73206.3,-10.27,-40.97,-41.23,0,*6F
1487531001.66,631,13.56,73206.0,-10.27,-41.17,-41.23,0,*67
1487531002.89,632,13.56,73206.3,-10.27,-41.17,-41.23,0,*64
1487531004.12,633,13.56,73206.0,-10.27,-41.17,-41.35,0,*62
1487531005.32,634,13.56,73204.3,-10.27,-41.17,-41.41,0,*66
1487531006.55,635,13.56,73204.8,-10.27,-41.17,-41.35,0,*64
1487531007.75,636,13.56,73206.5,-10.27,-41.17,-41.17,0,*67
1487531008.98,637,13.56,73202.5,-10.27,-41.03,-41.23,0,*64
1487531010.22,638,13.56,73206.5,-10.27,-41.03,-41.23,0,*6B
1487531011.42,639,13.56,73202.3,-10.27,-41.03,-41.17,0,*6D
1487531012.65,640,13.56,73204.3,-10.27,-41.17,-41.23,0,*61
1487531013.91,641,13.56,73210.8,-10.27,-41.35,-41.23,0,*60
1487531015.19,642,13.56,73204.8,-10.25,-41.23,-41.35,0,*61
1487531016.48,643,13.56,73204.0,-10.25,-41.35,-41.35,0,*67
1487531017.73,644,13.56,73206.3,-10.25,-41.23,-41.41,0,*64
1487531019.02,645,13.56,73206.5,-10.25,-41.23,-41.35,0,*66
1487531020.3,646,13.56,73204.3,-10.25,-41.23,-41.35,0,*65
1487531021.53,647,13.56,73202.8,-10.25,-41.17,-41.29,0,*6E
1487531022.76,648,13.56,73204.0,-10.25,-41.17,-41.41,0,*6F
1487531024.02,649,13.56,73204.3,-10.25,-41.17,-41.35,0,*6D
1487531025.27,650,13.56,73204.8,-10.25,-41.17,-41.35,0,*65
1487531026.52,651,13.56,73200.8,-10.25,-41.17,-41.35,0,*64
1487531027.75,652,13.56,73200.5,-10.23,-41.23,-41.29,0,*6B
1487531028.98,653,13.56,73206.8,-10.23,-40.97,-41.29,0,*64
1487531030.18,654,13.56,73204.3,-10.23,-41.17,-41.17,0,*67
1487531031.38,655,13.56,73204.8,-10.23,-41.17,-41.29,0,*6B
1487531032.67,656,13.56,73206.0,-10.25,-41.23,-41.35,0,*64
1487531033.87,657,13.56,73206.3,-10.23,-41.11,-41.29,0,*6F
1487531035.06,658,13.56,73204.8,-10.23,-41.29,-41.29,0,*6B
1487531036.29,659,13.56,73204.0,-10.23,-41.29,-41.35,0,*67
1487531037.51,660,13.56,73204.5,-10.23,-41.29,-41.35,0,*6D
1487531038.71,661,13.56,73206.0,-10.23,-41.29,-41.49,0,*67
1487531039.93,662,13.5,73200.5,-10.23,-41.49,-41.35,0,*69
1487531041.16,663,13.56,73202.3,-10.23,-41.49,-41.55,0,*6E
1487531042.39,664,13.56,73208.0,-10.23,-41.35,-41.49,0,*6F
1487531043.62,665,13.56,73212.0,-10.23,-41.49,-41.67,0,*69
1487531044.85,666,13.56,73206.3,-10.25,-41.61,-41.73,0,*63
1487531046.08,667,13.56,73204.3,-10.23,-41.67,-41.73,0,*62
1487531047.34,668,13.56,73206.8,-10.23,-41.55,-41.67,0,*69
1487531048.57,669,13.56,73208.0,-10.25,-41.41,-41.73,0,*6E
1487531049.82,670,13.56,73206.0,-10.25,-41.41,-41.55,0,*62
1487531051.07,671,13.56,73210.5,-10.25,-41.55,-41.61,0,*61
1487531052.33,672,13.56,73204.3,-10.23,-41.35,-41.35,0,*63
1487531053.58,673,13.56,73206.3,-10.25,-41.55,-41.61,0,*63
1487531054.81,674,13.56,73206.5,-10.25,-41.41,-41.73,0,*62
1487531056.04,675,13.56,73206.0,-10.23,-41.35,-41.49,0,*6F
1487531057.3,676,13.56,73206.5,-10.25,-41.41,-41.55,0,*64
1487531058.55,677,13.56,73208.0,-10.23,-41.55,-41.67,0,*67
1487531059.79,678,13.56,73204.5,-10.25,-41.61,-41.73,0,*6C
1487531061.02,679,13.56,73206.5,-10.25,-41.61,-41.73,0,*6D
1487531062.25,680,13.56,73208.0,-10.25,-41.61,-41.73,0,*6B
1487531063.48,681,13.56,73210.5,-10.25,-41.61,-41.73,0,*6A
1487531064.73,682,13.56,73206.3,-10.25,-41.61,-41.81,0,*64
1487531065.98,683,13.56,73202.3,-10.25,-41.61,-41.81,0,*65
1487531067.23,684,13.56,73200.0,-10.25,-41.73,-41.93,0,*62
1487531068.48,685,13.56,73204.3,-10.23,-41.67,-41.93,0,*60
1487531069.71,686,13.56,73204.8,-10.23,-41.67,-41.87,0,*66
1487531070.94,687,13.56,73204.0,-10.25,-41.73,-41.87,0,*64
1487531072.16,688,13.56,73206.5,-10.25,-41.73,-41.99,0,*64
1487531073.41,689,13.56,73204.5,-10.25,-41.73,-41.93,0,*6F
1487531074.64,690,13.56,73206.5,-10.23,-41.67,-41.87,0,*61
1487531075.89,691,13.56,73206.0,-10.25,-41.55,-41.73,0,*6C
1487531077.18,692,13.56,73206.5,-10.25,-41.55,-41.55,0,*6B
1487531078.43,693,13.56,73202.3,-10.25,-41.41,-41.55,0,*6F
1487531079.66,694,13.56,73206.0,-10.25,-41.41,-41.61,0,*6F
1487531080.89,695,13.56,73208.3,-10.25,-41.41,-41.61,0,*6E
1487531082.12,696,13.56,73204.0,-10.25,-41.61,-41.73,0,*6C
1487531083.37,697,13.56,73202.3,-10.25,-41.55,-41.61,0,*69
1487531084.6,698,13.56,73206.8,-10.25,-41.61,-41.73,0,*62
1487531085.83,699,13.56,73206.8,-10.25,-41.61,-41.99,0,*67
1487531087.08,700,13.56,73200.5,-10.25,-41.61,-41.93,0,*6C
1487531088.33,701,13.56,73206.8,-10.25,-41.81,-41.99,0,*69
1487531089.55,702,13.56,73206.8,-10.23,-41.87,-41.93,0,*60
1487531090.78,703,13.56,73206.0,-10.25,-41.41,-41.73,0,*63
1487531092.01,704,13.56,73204.5,-10.27,-41.55,-41.61,0,*60
1487531093.26,705,13.56,73206.5,-10.25,-41.55,-41.61,0,*63
1487531094.49,706,13.56,73204.5,-10.25,-41.41,-41.61,0,*65
1487531095.72,707,13.56,73206.0,-10.27,-41.35,-41.41,0,*67
1487531096.98,708,13.56,73204.8,-10.27,-41.35,-41.55,0,*6D
1487531098.23,709,13.56,73202.8,-10.27,-41.23,-41.35,0,*6D
1487531099.46,710,13.56,73204.5,-10.27,-41.23,-41.41,0,*66
1487531100.69,711,13.56,73206.5,-10.27,-41.17,-41.35,0,*63
1487531101.92,712,13.56,73202.0,-10.23,-40.79,-40.91,0,*62
1487531103.15,713,13.56,73202.5,-10.23,-40.73,-40.97,0,*6F
1487531104.36,714,13.56,73208.0,-10.23,-40.91,-41.11,0,*6B
1487531105.56,715,13.56,73200.8,-10.23,-40.91,-41.17,0,*6C
1487531106.79,716,13.56,73204.3,-10.23,-41.11,-41.35,0,*66
1487531107.99,717,13.56,73204.5,-10.23,-41.17,-41.29,0,*6C
1487531109.22,718,13.56,73204.3,-10.23,-40.97,-41.17,0,*67
1487531110.42,719,13.56,73204.3,-10.23,-40.91,-41.17,0,*60
1487531111.65,720,13.56,73204.8,-10.23,-40.97,-41.17,0,*6C
1487531112.87,721,13.56,73204.8,-10.21,-41.11,-41.29,0,*6D
1487531114.13,722,13.56,73206.5,-10.21,-41.17,-41.35,0,*65
1487531115.36,723,13.56,73206.3,-10.21,-41.11,-41.17,0,*62
1487531116.57,724,13.56,73202.3,-10.19,-41.03,-41.11,0,*6B
1487531117.82,725,13.56,73202.8,-10.21,-40.97,-41.29,0,*66
1487531119.07,726,13.56,73206.8,-10.21,-41.11,-41.35,0,*67
1487531120.3,727,13.56,73206.3,-10.21,-41.11,-41.29,0,*6B
1487531121.53,728,13.56,73206.8,-10.21,-41.11,-41.29,0,*64
1487531122.76,729,13.56,73202.3,-10.19,-40.91,-41.23,0,*6D
1487531123.96,730,13.56,73202.8,-10.19,-41.11,-41.29,0,*66
1487531125.19,731,13.56,73204.0,-10.19,-41.11,-41.35,0,*6A
1487531126.43,732,13.56,73202.8,-10.19,-41.03,-41.23,0,*6D
1487531127.66,733,13.56,73200.3,-10.19,-40.91,-41.23,0,*66
1487531128.87,734,13.56,73206.3,-10.19,-41.03,-41.11,0,*6A
1487531130.11,735,13.56,73204.8,-10.19,-41.03,-41.23,0,*6A
1487531131.35,736,13.56,73204.5,-10.19,-41.03,-41.23,0,*69
1487531132.55,737,13.5,73206.5,-10.19,-41.03,-41.29,0,*62
1487531133.78,738,13.56,73206.8,-10.15,-41.11,-41.23,0,*68
1487531135.03,739,13.56,73200.5,-10.15,-40.85,-41.23,0,*65
1487531136.26,740,13.56,73204.8,-10.15,-40.91,-41.23,0,*6E
1487531137.49,741,13.56,73204.5,-10.15,-41.03,-41.23,0,*65
1487531138.74,742,13.56,73206.0,-10.13,-40.97,-41.17,0,*6B
1487531139.97,743,13.56,73204.3,-10.15,-40.85,-41.03,0,*6A
1487531141.24,744,13.56,73206.5,-10.13,-40.79,-40.85,0,*67
1487531142.5,745,13.56,73204.8,-10.13,-40.97,-41.03,0,*69
1487531143.76,746,13.56,73208.0,-10.13,-40.85,-41.03,0,*69
1487531145.02,747,13.56,73206.3,-10.13,-40.85,-41.03,0,*68
1487531146.3,748,13.5,73200.3,-10.13,-41.23,-41.23,0,*68
1487531147.53,749,13.56,73206.3,-10.13,-41.03,-41.17,0,*6C
1487531148.79,750,13.56,73206.3,-10.13,-41.03,-41.23,0,*63
1487531150.02,751,13.5,73206.3,-10.13,-41.17,-41.17,0,*60
1487531151.27,752,13.5,73202.5,-10.15,-40.97,-41.23,0,*6B
1487531152.52,753,13.56,73206.3,-10.13,-41.17,-41.35,0,*62
1487531153.77,754,13.56,73206.5,-10.13,-41.17,-41.35,0,*65
1487531155.0,755,13.56,73204.0,-10.13,-41.17,-41.17,0,*64
1487531156.26,756,13.56,73204.3,-10.13,-40.85,-41.03,0,*68
1487531157.49,757,13.56,73206.5,-10.13,-41.03,-41.17,0,*63
1487531158.72,758,13.56,73208.5,-10.13,-41.17,-41.17,0,*69
1487531159.93,759,13.5,73204.3,-10.09,-41.11,-41.17,0,*65
1487531161.13,760,13.5,73202.0,-10.09,-41.11,-41.29,0,*62
1487531162.34,761,13.56,73206.8,-10.09,-41.11,-41.29,0,*63
1487531163.59,762,13.56,73206.0,-10.07,-41.11,-41.35,0,*63
1487531164.8,763,13.5,73206.3,-10.09,-41.11,-41.29,0,*61
1487531166.03,764,13.56,73204.8,-10.09,-40.97,-41.17,0,*64
1487531167.26,765,13.56,73208.0,-10.09,-40.97,-41.17,0,*65
1487531168.47,766,13.56,73204.3,-10.09,-41.11,-41.17,0,*69
1487531169.72,767,13.56,73206.3,-10.07,-40.97,-41.29,0,*64
1487531170.95,768,13.5,73204.8,-10.07,-41.11,-41.29,0,*64
1487531172.2,769,13.56,73206.8,-10.07,-40.97,-41.17,0,*67
1487531173.46,770,13.56,73208.5,-10.07,-41.17,-41.35,0,*66
1487531174.68,771,13.5,73206.8,-10.07,-41.17,-41.29,0,*6A
1487531175.91,772,13.56,73206.3,-10.07,-41.11,-41.29,0,*6F
1487531177.16,773,13.56,73210.5,-10.07,-41.17,-41.35,0,*65
1487531178.39,774,13.56,73204.5,-10.07,-41.11,-41.29,0,*69
1487531179.64,775,13.56,73210.3,-10.07,-41.17,-41.35,0,*63
1487531180.9,776,13.56,73210.0,-10.07,-41.17,-41.35,0,*60
1487531182.12,777,13.5,73204.5,-10.07,-41.11,-41.29,0,*6A
1487531183.32,778,13.5,73204.3,-10.05,-41.11,-41.29,0,*67
1487531184.55,779,13.56,73210.3,-10.05,-41.11,-41.35,0,*6B
1487531185.78,780,13.5,73206.0,-10.05,-41.11,-41.35,0,*6D
1487531186.99,781,13.56,73204.8,-10.05,-40.91,-41.11,0,*63
1487531188.21,782,13.56,73208.5,-10.05,-41.29,-41.35,0,*64
1487531189.46,783,13.56,73208.0,-10.07,-41.29,-41.35,0,*67
1487531190.72,784,13.56,73206.3,-10.07,-41.17,-41.35,0,*6D
1487531191.94,785,13.5,73206.5,-10.05,-41.17,-41.35,0,*6E
1487531193.17,786,13.56,73206.5,-10.05,-41.11,-41.35,0,*6B
1487531194.4,787,13.5,73204.0,-10.05,-41.29,-41.35,0,*61
1487531195.62,788,13.5,73206.5,-10.05,-41.29,-41.35,0,*6E
1487531196.85,789,13.56,73210.8,-10.05,-41.23,-41.41,0,*66
1487531198.11,790,13.5,73206.8,-10.03,-41.23,-41.41,0,*68
1487531199.3,791,13.5,73206.3,-10.05,-41.29,-41.49,0,*6D
1487531200.5,792,13.5,73206.3,-10.05,-41.29,-41.49,0,*6E
1487531201.7,793,13.56,73210.3,-10.05,-41.29,-41.29,0,*69
1487531202.96,794,13.5,73204.3,-10.03,-41.23,-41.41,0,*6C
1487531204.21,795,13.56,73206.5,-10.05,-41.35,-41.55,0,*69
1487531205.44,796,13.56,73206.0,-10.03,-41.11,-41.41,0,*6F
1487531206.63,797,13.56,73210.0,-10.05,-41.29,-41.49,0,*6B
1487531207.83,798,13.56,73206.8,-10.05,-41.17,-41.49,0,*69
1487531209.06,799,13.5,73204.5,-10.05,-41.29,-41.35,0,*6E
1487531210.28,800,13.5,73204.3,-10.05,-41.29,-41.55,0,*67
1487531211.53,801,13.5,73204.3,-10.03,-41.11,-41.23,0,*6A
1487531212.77,802,13.5,73206.8,-10.05,-41.23,-41.41,0,*6A
1487531213.96,803,13.5,73202.8,-10.05,-41.17,-41.49,0,*64
1487531215.19,804,13.5,73200.5,-10.03,-41.11,-41.41,0,*6B
1487531216.39,805,13.56,73204.5,-10.05,-41.11,-41.29,0,*62
1487531217.62,806,13.5,73204.5,-10.03,-41.11,-41.41,0,*69
1487531218.88,807,13.56,73206.8,-10.03,-41.23,-41.41,0,*69
1487531220.1,808,13.56,73206.0,-10.03,-41.29,-41.49,0,*64
1487531221.35,809,13.5,73204.5,-10.03,-41.23,-41.49,0,*6F
1487531222.57,810,13.5,73206.0,-10.03,-41.11,-41.29,0,*60
1487531223.8,811,13.5,73208.3,-10.03,-41.11,-41.29,0,*61
1487531225.06,812,13.5,73202.3,-10.03,-41.23,-41.49,0,*65
1487531226.28,813,13.5,73204.3,-10.03,-41.29,-41.41,0,*66
1487531227.54,814,13.5,73206.5,-10.01,-41.23,-41.35,0,*6A
1487531228.78,815,13.5,73204.5,-10.01,-41.35,-41.41,0,*6F
1487531230.0,816,13.5,73204.8,-10.03,-41.29,-41.41,0,*63
1487531231.23,817,13.5,73204.5,-10.03,-41.11,-41.41,0,*69
1487531232.46,818,13.5,73202.0,-10.01,-41.17,-41.23,0,*66
1487531233.71,819,13.5,73200.0,-10.01,-40.97,-41.23,0,*6E
1487531234.95,820,13.5,73204.3,-10.01,-41.03,-41.35,0,*6F
1487531236.2,821,13.5,73202.8,-9.99,-41.17,-41.35,0,*52
1487531237.41,822,13.5,73204.3,-10.01,-41.03,-41.17,0,*6D
1487531238.63,823,13.5,73202.8,-9.99,-41.17,-41.41,0,*53
1487531239.86,824,13.5,73202.5,-10.01,-41.23,-41.41,0,*6A
1487531241.07,825,13.5,73200.8,-10.01,-41.17,-41.41,0,*6C
1487531242.33,826,13.5,73206.3,-10.01,-41.23,-41.35,0,*6B
1487531243.56,827,13.56,73206.5,-10.01,-41.03,-41.35,0,*68
1487531244.77,828,13.5,73206.0,-10.01,-41.17,-41.41,0,*61
1487531245.99,829,13.5,73204.0,-9.99,-41.17,-41.41,0,*59
1487531247.27,830,13.5,73204.5,-9.99,-41.23,-41.35,0,*55
1487531248.5,831,13.5,73206.5,-10.01,-41.17,-41.35,0,*6A
1487531249.75,832,13.5,73200.8,-9.99,-41.17,-41.35,0,*50
1487531250.98,833,13.56,73210.5,-10.01,-41.17,-41.35,0,*68
1487531252.23,834,13.5,73200.0,-9.99,-41.17,-41.35,0,*56
1487531253.49,835,13.5,73206.0,-10.01,-41.23,-41.35,0,*69
1487531254.71,836,13.5,73200.5,-9.99,-41.03,-41.41,0,*52
1487531255.97,837,13.5,73204.0,-9.99,-41.23,-41.41,0,*51
1487531257.22,838,13.5,73204.3,-9.99,-41.23,-41.41,0,*5E
1487531258.44,839,13.5,73204.3,-9.99,-41.17,-41.41,0,*58
1487531259.72,840,13.5,73206.3,-9.99,-41.23,-41.35,0,*52
1487531260.96,841,13.5,73204.0,-9.99,-41.35,-41.61,0,*55
1487531262.24,842,13.5,73202.8,-9.99,-41.35,-41.55,0,*51
1487531263.52,843,13.5,73200.8,-9.99,-41.35,-41.55,0,*50
1487531264.8,844,13.5,73204.8,-9.99,-41.35,-41.55,0,*57
1487531266.07,845,13.5,73204.3,-9.99,-41.23,-41.55,0,*51
1487531267.33,846,13.5,73202.5,-9.99,-41.23,-41.41,0,*57
1487531268.58,847,13.5,73204.5,-9.99,-41.23,-41.41,0,*56
1487531269.86,848,13.5,73204.3,-9.99,-41.23,-41.35,0,*5A
1487531271.1,849,13.56,73206.8,-9.99,-41.23,-41.61,0,*5A
1487531272.32,850,13.5,73200.8,-9.99,-41.41,-41.61,0,*56
1487531273.55,851,13.5,73198.5,-9.99,-41.17,-41.41,0,*56
1487531274.74,852,13.5,73202.0,-9.97,-41.11,-41.29,0,*53
1487531275.99,853,13.5,73202.0,-9.99,-41.23,-41.41,0,*53
1487531277.22,854,13.5,73202.0,-9.97,-41.17,-41.35,0,*5E
1487531278.44,855,13.5,73200.8,-9.95,-41.17,-41.29,0,*50
1487531279.66,856,13.5,73198.5,-9.97,-41.29,-41.35,0,*51
1487531280.85,857,13.5,73202.0,-9.97,-41.29,-41.49,0,*5B
1487531282.04,858,13.5,73200.5,-9.97,-41.17,-41.49,0,*59
1487531283.26,859,13.5,73200.3,-9.95,-41.17,-41.49,0,*5A
1487531284.48,860,13.5,73200.5,-9.97,-41.17,-41.35,0,*59
1487531285.73,861,13.5,73202.8,-9.97,-40.97,-41.35,0,*51
1487531286.93,862,13.5,73200.3,-9.97,-41.11,-41.29,0,*50
1487531288.15,863,13.5,73200.0,-9.97,-41.11,-41.35,0,*5C
1487531289.37,864,13.5,73196.3,-9.95,-41.11,-41.29,0,*54
1487531290.61,865,13.5,73200.8,-9.95,-41.29,-41.35,0,*53
1487531291.84,866,13.5,73202.8,-9.97,-41.11,-41.35,0,*59
1487531293.08,867,13.5,73200.0,-9.95,-40.97,-41.17,0,*55
1487531294.31,868,13.5,73202.5,-9.97,-41.11,-41.35,0,*57
1487531295.55,869,13.5,73200.5,-9.95,-41.17,-41.35,0,*52
1487531296.8,870,13.5,73202.8,-9.95,-40.97,-41.29,0,*5E
1487531298.01,871,13.5,73198.3,-9.95,-41.11,-41.29,0,*50
1487531299.26,872,13.5,73200.0,-9.95,-41.11,-41.35,0,*5E
1487531300.5,873,13.5,73202.8,-9.95,-41.17,-41.35,0,*59
1487531301.75,874,13.5,73200.0,-9.95,-41.29,-41.55,0,*55
1487531302.99,875,13.5,73202.8,-9.95,-41.17,-41.35,0,*5F
1487531304.18,876,13.5,73200.3,-9.97,-41.11,-41.49,0,*53